Regional Weather Roundup
Issued by NWS

Home | Current Version | Previous Version | Graphics & Text | Print | Product List | Glossary On
Versions: 1 2 3 4 5 6 7 8 9 10 11 12 13 14 15 16 17 18 19 20 21 22 23 24 25 26 27 28 29 30 31 32 33 34 35 36 37 38 39 40 41 42 43 44 45 46 47 48 49 50
000
ASUS43 KLOT 150858
RWRIL

ILLINOIS REGIONAL WEATHER ROUNDUP
NATIONAL WEATHER SERVICE CHICAGO/ROMEOVILLE IL
400 AM CDT MON SEP 15 2014

NOTE: "FAIR" INDICATES FEW OR NO CLOUDS BELOW 12,000 FEET WITH NO
SIGNIFICANT WEATHER AND/OR OBSTRUCTIONS TO VISIBILITY.

* THESE STATIONS ARE NOT UNDER NWS QUALITY CONTROL. THEY ALSO MAY NOT
  REPORT WEATHER SUCH AS PRECIPITATION OR FOG.

ILZ001-002-007-009-015-016-024-151000-
NORTHWEST ILLINOIS

CITY           SKY/WX    TMP DP  RH WIND       PRES   REMARKS
MOLINE         CLOUDY    55  49  80 SE6       30.13F
$$

ILZ003-004-008-010-011-017-018-151000-
NORTH CENTRAL ILLINOIS

CITY           SKY/WX    TMP DP  RH WIND       PRES   REMARKS
ROCKFORD       NOT AVBL
$$

ILZ005-006-012>014-019>023-151000-
NORTHEAST ILLINOIS

CITY           SKY/WX    TMP DP  RH WIND       PRES   REMARKS
CHICAGO-OHARE  MOCLDY    52  46  80 CALM      30.15F
CHICAGO-MIDWAY MOCLDY    55  47  74 S3        30.15F
AURORA         CLOUDY    50  46  86 CALM      30.16S
WAUKEGAN       CLOUDY    51  46  83 SW3       30.14F
DUPAGE AIRPORT CLOUDY    50  47  89 CALM      30.15S
WHEELING       PTCLDY    53  47  79 CALM      30.17S
NORTHERLY ISL    N/A     57  45  64 S5          N/A
$$

LMZ740>746-151000-
SOUTHERN LAKE MICHIGAN

STATION/POSITION SKY/WX   TEMP    WIND        PRES    VSBY  WAVE
                          AIR SEA DIR/SP/G                  HT/PER
                          (F)     (DEG/KT/KT) (MB)    (MI)  (FT/S)
SOUTHERN BUOY              63 64  240/ 12/ 14 1021.3F         2/ 3
WAUKEGAN HARBOR            56     250/  5/  7   N/A
HARRISON CRIB              59     190/  9/ 10   N/A
BURNHAM HARBOR             58     190/  5       N/A
CALUMET HARBOR             54     180/  3/  4 1020.2F
MICHIGAN CITY              55     150/  8/ 11   N/A
MICHIGAN CITY 6N           59 64  180/  8/ 10   N/A           1/ 2
ST. JOSEPH                 60 67  170/ 10/ 12   N/A           1/ 2
$$

ILZ025>027-034>036-040-047-049-050-058-095>099-151000-
WEST-CENTRAL ILLINOIS

CITY           SKY/WX    TMP DP  RH WIND       PRES   REMARKS
QUINCY         CLOUDY    59  49  69 SE3       30.12S
$$

ILZ028>032-037-038-041>044-048-051>054-059>061-151000-
CENTRAL ILLINOIS

CITY           SKY/WX    TMP DP  RH WIND       PRES   REMARKS
PEORIA         NOT AVBL
SPRINGFIELD    CLOUDY    58  51  78 CALM      30.17F
TAYLORVILLE    NOT AVBL
$$

ILZ033-039-045-046-055>057-062-063-151000-
EAST-CENTRAL ILLINOIS

CITY           SKY/WX    TMP DP  RH WIND       PRES   REMARKS
CHAMPAIGN      CLOUDY    50  47  89 SE5       30.16F
MATTOON        MOCLDY    49  46  90 S6        30.17F
$$

ILZ079-100>102-151000-
SOUTHWEST ILLINOIS

CITY           SKY/WX    TMP DP  RH WIND       PRES   REMARKS
CAHOKIA*       CLOUDY    57  53  86 CALM      30.16F
$$

ILZ064>066-069>071-074>076-080>082-084>086-088>090-092>094-151000-
SOUTH-CENTRAL ILLINOIS

CITY           SKY/WX    TMP DP  RH WIND       PRES   REMARKS
CARBONDALE     CLEAR     51  49  92 CALM      30.17S
$$

ILZ067-068-072-073-078-083-087-091-151000-
SOUTHEAST ILLINOIS

CITY           SKY/WX    TMP DP  RH WIND       PRES   REMARKS
LAWRENCEVILLE  PTCLDY    47  46  97 E3        30.20S FOG
$$

ABBREVIATIONS USED IN REMARKS
   TC - TEMPERATURE IN CELSIUS
  WCI - WIND CHILL INDEX
   HX - HEAT INDEX
  VSB - VISIBILITY
$$




USA.gov is the U.S. government's official web portal to all federal, state and local government web resources and services.